Location: Newark
(53.0000°N, 1.0000°W)
Time: 08:03:10
(UTC+00:00)

NOAA 19 - Visible Passes

Search period start: 26 January 2020 00:00
Search period end: 05 February 2020 00:00
Orbit: 840 x 862 km, 99.2° (Epoch: 25 January)

Date Brightness Start Highest point End Pass type
(mag) Time Alt. Az. Time Alt. Az. Time Alt. Az.
26 Jan 6.4 05:34:41 10° NNE 05:39:55 44° E 05:45:06 10° S visible
26 Jan 5.7 07:15:31 10° N 07:20:33 38° WNW 07:25:33 10° SW visible
26 Jan 6.0 17:07:25 10° S 17:12:50 59° WSW 17:18:17 10° NNW visible
26 Jan 8.6 18:53:22 10° W 18:54:41 11° W 18:56:00 10° WNW visible
27 Jan 6.8 05:23:06 10° NNE 05:28:08 36° E 05:33:08 10° SSE visible
27 Jan 5.5 07:03:44 10° N 07:08:55 46° WNW 07:14:06 10° SW visible
27 Jan 8.3 18:40:05 10° WSW 18:42:46 14° W 18:45:27 10° NW visible
28 Jan 7.1 05:11:33 10° NNE 05:16:19 30° E 05:21:04 10° SSE visible
28 Jan 5.3 06:51:57 10° N 06:57:18 55° WNW 07:02:36 10° SW visible
28 Jan 8.2 18:27:25 10° SW 18:30:52 17° W 18:34:20 10° NW visible
29 Jan 7.4 05:00:04 10° NE 05:04:30 25° E 05:08:55 10° SE visible
29 Jan 5.2 06:40:12 10° NNE 06:45:38 66° WNW 06:51:03 10° SSW visible
29 Jan 8.0 18:14:59 10° SW 18:19:00 21° W 18:23:03 10° NW visible
30 Jan 7.7 04:48:39 10° NE 04:52:39 20° E 04:56:38 10° SE visible
30 Jan 5.1 06:28:29 10° NNE 06:33:58 80° WNW 06:39:25 10° SSW visible
30 Jan 7.7 18:02:43 10° SSW 18:07:10 25° W 18:11:38 10° NW visible
31 Jan 8.0 04:37:22 10° NE 04:40:47 17° E 04:44:11 10° SE visible
31 Jan 5.2 06:16:46 10° NNE 06:22:16 86° ESE 06:27:45 10° SSW visible
31 Jan 7.4 17:50:34 10° SSW 17:55:20 30° W 18:00:08 10° NNW visible
01 Feb 8.2 04:26:17 10° NE 04:28:53 13° E 04:31:29 10° ESE visible
01 Feb 5.5 06:05:04 10° NNE 06:10:33 72° ESE 06:16:01 10° S visible
01 Feb 7.0 17:38:31 10° SSW 17:43:32 36° W 17:48:35 10° NNW visible
02 Feb 8.4 04:15:49 10° ENE 04:16:59 11° E 04:18:07 10° E visible
02 Feb 5.8 05:53:24 10° NNE 05:58:49 59° ESE 06:04:13 10° S visible
02 Feb 6.6 17:26:32 10° S 17:31:45 44° W 17:37:00 10° NNW visible
03 Feb 6.2 05:41:46 10° NNE 05:47:04 48° E 05:52:21 10° S visible
04 Feb 6.6 05:30:10 10° NNE 05:35:18 40° E 05:40:25 10° SSE visible
04 Feb 8.5 18:47:54 10° WSW 18:50:00 12° W 18:52:06 10° WNW visible
